SPKOL EPKK-ENVA

Flight info

Callsign SPKOL
Flight time 2h 6m
Altitude 38000
Route NAVUR DCT PENOR DCT OSKOK DCT VEVOD
Aircraft B738/M-SDE2E3FGHIRWXY/LB1

Departure

Time 2026-05-07 18:41
Airport Kraków John Paul II International Airport (EPKK)

Arrival

Time 2026-05-07 20:48
Airport Trondheim Airport, Værnes (ENVA)
Time Latitude Longitude Altitude Speed Heading
2026-05-07 18:22 50.07587 19.80160 790 ft 0 kts 347°
2026-05-07 18:34 50.07588 19.80160 790 ft 3 kts 346°
2026-05-07 18:34 50.07633 19.80180 790 ft 8 kts 58°
2026-05-07 18:34 50.07656 19.80303 790 ft 18 kts 77°
2026-05-07 18:35 50.07716 19.80378 790 ft 1 kts 347°
2026-05-07 18:35 50.07720 19.80377 790 ft 0 kts 347°
2026-05-07 18:35 50.07724 19.80375 790 ft 1 kts 347°
2026-05-07 18:35 50.07729 19.80373 790 ft 1 kts 347°
2026-05-07 18:36 50.07731 19.80373 790 ft 0 kts 347°
2026-05-07 18:37 50.07732 19.80372 790 ft 1 kts 347°
2026-05-07 18:37 50.07826 19.80341 790 ft 13 kts 347°
2026-05-07 18:38 50.07840 19.80336 790 ft 0 kts 347°
2026-05-07 18:40 50.07902 19.80314 790 ft 13 kts 348°
2026-05-07 18:40 50.07998 19.80262 789 ft 17 kts 310°
2026-05-07 18:40 50.08003 19.80125 789 ft 3 kts 256°
2026-05-07 18:40 50.07997 19.80090 790 ft 3 kts 257°
2026-05-07 18:41 50.07991 19.80050 790 ft 11 kts 258°
2026-05-07 18:41 50.07895 19.79358 789 ft 117 kts 258°
2026-05-07 18:41 50.07668 19.77688 1010 ft 187 kts 257°
2026-05-07 18:41 50.07333 19.75668 2198 ft 199 kts 256°
2026-05-07 18:42 50.07025 19.73547 3106 ft 204 kts 258°
2026-05-07 18:42 50.06719 19.71362 3807 ft 209 kts 258°
2026-05-07 18:42 50.06403 19.69113 4521 ft 216 kts 260°
2026-05-07 18:42 50.06485 19.66803 5184 ft 223 kts 285°
2026-05-07 18:43 50.07237 19.64606 5766 ft 239 kts 310°
2026-05-07 18:43 50.08657 19.63194 6469 ft 251 kts 341°
2026-05-07 18:43 50.10412 19.62973 7275 ft 257 kts
2026-05-07 18:43 50.12204 19.63387 8056 ft 265 kts
2026-05-07 18:44 50.14099 19.63974 8592 ft 288 kts
2026-05-07 18:44 50.16088 19.64624 9480 ft 296 kts
2026-05-07 18:44 50.18124 19.65288 10378 ft 304 kts
2026-05-07 18:44 50.20282 19.65980 10712 ft 331 kts
2026-05-07 18:45 50.22640 19.66721 10969 ft 358 kts
2026-05-07 18:45 50.25127 19.67497 11618 ft 369 kts
2026-05-07 18:45 50.27630 19.68273 12495 ft 374 kts
2026-05-07 18:45 50.30196 19.69064 13381 ft 379 kts
2026-05-07 18:46 50.32804 19.69866 14155 ft 385 kts
2026-05-07 18:46 50.35455 19.70678 14872 ft 391 kts
2026-05-07 18:46 50.38148 19.71503 15603 ft 398 kts
2026-05-07 18:46 50.40887 19.72342 16291 ft 404 kts
2026-05-07 18:47 50.43672 19.73196 16992 ft 411 kts
2026-05-07 18:47 50.46495 19.74062 17695 ft 417 kts 10°
2026-05-07 18:47 50.49360 19.74943 18357 ft 423 kts 10°
2026-05-07 18:47 50.52269 19.75838 18956 ft 428 kts 10°
2026-05-07 18:48 50.55206 19.76743 19616 ft 432 kts 10°
2026-05-07 18:48 50.58122 19.77610 20248 ft 435 kts
2026-05-07 18:48 50.61154 19.77846 20819 ft 439 kts 355°
2026-05-07 18:48 50.64178 19.77129 21390 ft 441 kts 343°
2026-05-07 18:49 50.67139 19.75777 21973 ft 445 kts 341°
2026-05-07 18:49 50.70115 19.74347 22521 ft 449 kts 341°
2026-05-07 18:49 50.73122 19.72894 23059 ft 454 kts 341°
2026-05-07 18:49 50.76161 19.71436 23588 ft 459 kts 341°
2026-05-07 18:50 50.79229 19.69977 24045 ft 463 kts 341°
2026-05-07 18:50 50.82324 19.68517 24525 ft 465 kts 341°
2026-05-07 18:50 50.85434 19.67058 25004 ft 468 kts 341°
2026-05-07 18:50 50.88534 19.65608 25409 ft 473 kts 341°
2026-05-07 18:51 50.91702 19.64125 25817 ft 478 kts 340°
2026-05-07 18:51 50.94917 19.62619 26135 ft 484 kts 340°
2026-05-07 18:51 50.98158 19.61099 26576 ft 487 kts 340°
2026-05-07 18:51 51.01411 19.59572 27043 ft 488 kts 340°
2026-05-07 18:52 51.04678 19.58035 27472 ft 491 kts 340°
2026-05-07 18:52 51.07965 19.56487 27860 ft 494 kts 340°
2026-05-07 18:52 51.11272 19.54926 28237 ft 498 kts 340°
2026-05-07 18:52 51.14598 19.53353 28639 ft 500 kts 340°
2026-05-07 18:53 51.17938 19.51772 29047 ft 502 kts 340°
2026-05-07 18:53 51.21247 19.50203 29405 ft 504 kts 340°
2026-05-07 18:53 51.24621 19.48600 29746 ft 507 kts 340°
2026-05-07 18:53 51.28010 19.46988 30064 ft 510 kts 339°
2026-05-07 18:54 51.31419 19.45363 30391 ft 511 kts 339°
2026-05-07 18:54 51.34829 19.43737 30811 ft 512 kts 339°
2026-05-07 18:54 51.38245 19.42105 31077 ft 514 kts 339°
2026-05-07 18:54 51.41657 19.40475 31735 ft 506 kts 339°
2026-05-07 18:55 51.45009 19.38874 32380 ft 501 kts 339°
2026-05-07 18:55 51.48342 19.37277 32805 ft 500 kts 338°
2026-05-07 18:55 51.51677 19.35672 33124 ft 501 kts 338°
2026-05-07 18:55 51.55020 19.34059 33477 ft 501 kts 338°
2026-05-07 18:56 51.58305 19.32473 33934 ft 499 kts 338°
2026-05-07 18:56 51.61621 19.30872 34351 ft 496 kts 338°
2026-05-07 18:56 51.64917 19.29279 34723 ft 494 kts 338°
2026-05-07 18:56 51.68202 19.27688 35108 ft 491 kts 339°
2026-05-07 18:57 51.71459 19.26110 35549 ft 487 kts 339°
2026-05-07 18:57 51.74697 19.24536 35908 ft 485 kts 339°
2026-05-07 18:57 51.77929 19.22962 36190 ft 485 kts 339°
2026-05-07 18:57 51.81164 19.21384 36470 ft 485 kts 339°
2026-05-07 18:58 51.84388 19.19808 36800 ft 484 kts 339°
2026-05-07 18:58 51.87605 19.18235 37151 ft 482 kts 339°
2026-05-07 18:58 51.90804 19.16669 37511 ft 480 kts 339°
2026-05-07 18:58 51.93993 19.15106 37837 ft 478 kts 339°
2026-05-07 18:59 51.97138 19.13561 38038 ft 479 kts 339°
2026-05-07 18:59 52.03553 19.10400 38025 ft 483 kts 339°
2026-05-07 19:00 52.09955 19.07241 38011 ft 478 kts 339°
2026-05-07 19:00 52.16299 19.04102 38025 ft 475 kts 339°
2026-05-07 19:01 52.22620 19.00962 38041 ft 475 kts 340°
2026-05-07 19:01 52.28933 18.97817 38030 ft 474 kts 340°
2026-05-07 19:02 52.35199 18.94686 38035 ft 474 kts 339°
2026-05-07 19:02 52.41516 18.91520 38031 ft 475 kts 339°
2026-05-07 19:03 52.47844 18.88340 38041 ft 476 kts 339°
2026-05-07 19:03 52.54184 18.85144 38033 ft 477 kts 339°
2026-05-07 19:04 52.60531 18.81935 38057 ft 477 kts 340°
2026-05-07 19:04 52.66842 18.78734 38051 ft 478 kts 340°
2026-05-07 19:05 52.73206 18.75497 38052 ft 479 kts 340°
2026-05-07 19:05 52.79571 18.72250 38054 ft 479 kts 340°
2026-05-07 19:06 52.85931 18.68994 38052 ft 478 kts 340°
2026-05-07 19:06 52.95464 18.64097 38059 ft 478 kts 340°
2026-05-07 19:07 53.01810 18.60824 38058 ft 477 kts 339°
2026-05-07 19:07 53.08103 18.57568 38072 ft 477 kts 340°
2026-05-07 19:08 53.14437 18.54281 38069 ft 477 kts 340°
2026-05-07 19:08 53.20766 18.50986 38070 ft 476 kts 340°
2026-05-07 19:09 53.27084 18.47687 38079 ft 476 kts 340°
2026-05-07 19:09 53.33398 18.44380 38082 ft 475 kts 339°
2026-05-07 19:10 53.39700 18.41069 38084 ft 475 kts 339°
2026-05-07 19:10 53.45956 18.37771 38085 ft 474 kts 339°
2026-05-07 19:11 53.52247 18.34445 38092 ft 474 kts 340°
2026-05-07 19:11 53.58532 18.31112 38085 ft 473 kts 340°
2026-05-07 19:12 53.64807 18.27774 38094 ft 472 kts 340°
2026-05-07 19:12 53.71027 18.24455 38091 ft 472 kts 340°
2026-05-07 19:13 53.77275 18.21110 38090 ft 471 kts 340°
2026-05-07 19:13 53.83513 18.17761 38098 ft 470 kts 340°
2026-05-07 19:14 53.89745 18.14403 38105 ft 470 kts 340°
2026-05-07 19:14 53.95973 18.11038 38119 ft 470 kts 340°
2026-05-07 19:15 54.02159 18.07685 38102 ft 470 kts 340°
2026-05-07 19:15 54.08379 18.04302 38103 ft 469 kts 340°
2026-05-07 19:16 54.14600 18.00909 38110 ft 469 kts 340°
2026-05-07 19:16 54.20813 17.97509 38107 ft 469 kts 340°
2026-05-07 19:17 54.27024 17.94100 38107 ft 469 kts 340°
2026-05-07 19:17 54.33232 17.90681 38112 ft 469 kts 340°
2026-05-07 19:18 54.39438 17.87253 38131 ft 469 kts 340°
2026-05-07 19:18 54.45601 17.83837 38125 ft 469 kts 340°
2026-05-07 19:19 54.51808 17.80387 38126 ft 469 kts 339°
2026-05-07 19:19 54.58014 17.76926 38120 ft 469 kts 339°
2026-05-07 19:20 54.64218 17.73454 38125 ft 469 kts 339°
2026-05-07 19:20 54.70419 17.69974 38130 ft 468 kts 339°
2026-05-07 19:21 54.76578 17.66505 38130 ft 468 kts 339°
2026-05-07 19:21 54.82772 17.63006 38130 ft 468 kts 339°
2026-05-07 19:22 54.88964 17.59497 38137 ft 468 kts 340°
2026-05-07 19:22 54.95154 17.55977 38125 ft 468 kts 339°
2026-05-07 19:23 55.01338 17.52450 38134 ft 467 kts 339°
2026-05-07 19:23 55.07475 17.48937 38137 ft 467 kts 339°
2026-05-07 19:24 55.13646 17.45394 38131 ft 467 kts 339°
2026-05-07 19:24 55.19813 17.41842 38136 ft 466 kts 339°
2026-05-07 19:25 55.25972 17.38282 38142 ft 466 kts 339°
2026-05-07 19:25 55.32087 17.34737 38152 ft 466 kts 339°
2026-05-07 19:26 55.38237 17.31159 38143 ft 465 kts 339°
2026-05-07 19:26 55.44378 17.27575 38145 ft 465 kts 339°
2026-05-07 19:27 55.50516 17.23981 38147 ft 464 kts 339°
2026-05-07 19:27 55.56636 17.20384 38146 ft 463 kts 339°
2026-05-07 19:28 55.62709 17.16806 38150 ft 463 kts 339°
2026-05-07 19:28 55.68811 17.13180 38154 ft 463 kts 339°
2026-05-07 19:29 55.74909 17.09521 38152 ft 462 kts 339°
2026-05-07 19:29 55.80994 17.05855 38159 ft 462 kts 339°
2026-05-07 19:30 55.87034 17.02207 38155 ft 461 kts 339°
2026-05-07 19:30 55.93107 16.98530 38158 ft 461 kts 339°
2026-05-07 19:31 55.99172 16.94846 38161 ft 460 kts 339°
2026-05-07 19:31 56.05228 16.91154 38156 ft 460 kts 339°
2026-05-07 19:32 56.11281 16.87452 38157 ft 459 kts 339°
2026-05-07 19:32 56.17282 16.83770 38160 ft 459 kts 339°
2026-05-07 19:33 56.23316 16.80055 38161 ft 458 kts 339°
2026-05-07 19:33 56.29348 16.76329 38163 ft 458 kts 339°
2026-05-07 19:34 56.35373 16.72595 38163 ft 458 kts 339°
2026-05-07 19:34 56.41397 16.68849 38163 ft 458 kts 339°
2026-05-07 19:35 56.47374 16.65120 38163 ft 457 kts 339°
2026-05-07 19:35 56.53391 16.61353 38161 ft 457 kts 339°
2026-05-07 19:36 56.59402 16.57577 38162 ft 458 kts 338°
2026-05-07 19:36 56.65416 16.53788 38158 ft 457 kts 338°
2026-05-07 19:37 56.71388 16.50012 38176 ft 457 kts 338°
2026-05-07 19:37 56.77398 16.46199 38160 ft 457 kts 338°
2026-05-07 19:38 56.83404 16.42375 38158 ft 457 kts 338°
2026-05-07 19:38 56.89402 16.38544 38163 ft 456 kts 338°
2026-05-07 19:39 56.95348 16.34733 38159 ft 455 kts 338°
2026-05-07 19:39 57.01320 16.30892 38163 ft 454 kts 338°
2026-05-07 19:40 57.07280 16.27046 38163 ft 454 kts 338°
2026-05-07 19:40 57.13231 16.23192 38162 ft 453 kts 338°
2026-05-07 19:41 57.19130 16.19359 38172 ft 452 kts 338°
2026-05-07 19:41 57.25067 16.15487 38167 ft 452 kts 338°
2026-05-07 19:42 57.31000 16.11605 38164 ft 452 kts 338°
2026-05-07 19:42 57.36932 16.07711 38165 ft 452 kts 338°
2026-05-07 19:43 57.42826 16.03829 38167 ft 452 kts 338°
2026-05-07 19:43 57.48760 15.99906 38181 ft 453 kts 338°
2026-05-07 19:44 57.54689 15.95974 38162 ft 452 kts 338°
2026-05-07 19:44 57.60613 15.92032 38160 ft 452 kts 338°
2026-05-07 19:45 57.66522 15.88085 38178 ft 451 kts 338°
2026-05-07 19:45 57.72378 15.84160 38179 ft 450 kts 338°
2026-05-07 19:46 57.78267 15.80200 38167 ft 449 kts 338°
2026-05-07 19:46 57.84144 15.76233 38173 ft 448 kts 338°
2026-05-07 19:47 57.90012 15.72260 38154 ft 448 kts 337°
2026-05-07 19:47 57.95866 15.68282 38163 ft 447 kts 337°
2026-05-07 19:48 58.01673 15.64321 38167 ft 447 kts 337°
2026-05-07 19:48 58.07516 15.60323 38173 ft 446 kts 337°
2026-05-07 19:49 58.13352 15.56316 38169 ft 446 kts 337°
2026-05-07 19:49 58.19192 15.52291 38170 ft 447 kts 337°
2026-05-07 19:50 58.25031 15.48254 38156 ft 447 kts 337°
2026-05-07 19:50 58.30827 15.44232 38153 ft 446 kts 336°
2026-05-07 19:51 58.36660 15.40170 38127 ft 446 kts 336°
2026-05-07 19:51 58.42488 15.36098 38136 ft 446 kts 336°
2026-05-07 19:52 58.48310 15.32015 38134 ft 446 kts 336°
2026-05-07 19:52 58.54089 15.27948 38139 ft 445 kts 336°
2026-05-07 19:53 58.59895 15.23847 38140 ft 445 kts 336°
2026-05-07 19:53 58.65691 15.19740 38151 ft 444 kts 336°
2026-05-07 19:54 58.71478 15.15623 38167 ft 443 kts 335°
2026-05-07 19:54 58.77253 15.11501 38151 ft 442 kts 335°
2026-05-07 19:55 58.82980 15.07399 38142 ft 442 kts 335°
2026-05-07 19:55 58.88735 15.03262 38144 ft 441 kts 335°
2026-05-07 19:56 58.94482 14.99115 38147 ft 441 kts 335°
2026-05-07 19:56 59.00225 14.94957 38147 ft 440 kts 335°
2026-05-07 19:57 59.05924 14.90817 38147 ft 441 kts 335°
2026-05-07 19:57 59.11665 14.86630 38138 ft 441 kts 335°
2026-05-07 19:58 59.17413 14.82422 38136 ft 442 kts 335°
2026-05-07 19:58 59.23171 14.78193 38144 ft 443 kts 335°
2026-05-07 19:59 59.28943 14.73938 38144 ft 444 kts 335°
2026-05-07 19:59 59.34695 14.69683 38184 ft 446 kts 335°
2026-05-07 20:00 59.40507 14.65367 38154 ft 447 kts 334°
2026-05-07 20:00 59.46330 14.61028 38147 ft 448 kts 334°
2026-05-07 20:01 59.52156 14.56672 38140 ft 448 kts 334°
2026-05-07 20:01 59.57977 14.52302 38141 ft 448 kts 334°
2026-05-07 20:02 59.63755 14.47949 38149 ft 447 kts 334°
2026-05-07 20:02 59.69557 14.43561 38147 ft 447 kts 334°
2026-05-07 20:03 59.75353 14.39162 38146 ft 445 kts 334°
2026-05-07 20:03 59.81128 14.34761 38143 ft 444 kts 334°
2026-05-07 20:04 59.86843 14.30390 38150 ft 443 kts 334°
2026-05-07 20:04 59.92585 14.25982 38146 ft 442 kts 334°
2026-05-07 20:05 59.98320 14.21563 38150 ft 441 kts 334°
2026-05-07 20:05 60.04048 14.17133 38155 ft 441 kts 334°
2026-05-07 20:06 60.09762 14.12697 38148 ft 440 kts 334°
2026-05-07 20:06 60.15424 14.08286 38161 ft 439 kts 334°
2026-05-07 20:07 60.21117 14.03834 38149 ft 439 kts 333°
2026-05-07 20:07 60.26802 13.99371 38145 ft 438 kts 333°
2026-05-07 20:08 60.32484 13.94893 38173 ft 439 kts 333°
2026-05-07 20:08 60.38130 13.90428 38159 ft 439 kts 333°
2026-05-07 20:09 60.43810 13.85919 38146 ft 438 kts 333°
2026-05-07 20:10 60.52319 13.79133 38151 ft 438 kts 333°
2026-05-07 20:10 60.57946 13.74625 38152 ft 437 kts 333°
2026-05-07 20:11 60.63606 13.70072 38208 ft 437 kts 333°
2026-05-07 20:11 60.69278 13.65490 38161 ft 439 kts 333°
2026-05-07 20:12 60.74955 13.60889 38156 ft 439 kts 333°
2026-05-07 20:12 60.80640 13.56263 38153 ft 440 kts 333°
2026-05-07 20:13 60.86288 13.51651 38154 ft 440 kts 333°
2026-05-07 20:13 60.91978 13.46986 38158 ft 440 kts 333°
2026-05-07 20:14 60.97664 13.42307 38165 ft 440 kts 333°
2026-05-07 20:14 61.03350 13.37609 38155 ft 440 kts 333°
2026-05-07 20:15 61.08997 13.32926 38167 ft 440 kts 333°
2026-05-07 20:15 61.14682 13.28193 38164 ft 441 kts 333°
2026-05-07 20:16 61.20371 13.23437 38162 ft 441 kts 333°
2026-05-07 20:16 61.26059 13.18664 38150 ft 441 kts 333°
2026-05-07 20:17 61.31741 13.13878 38165 ft 441 kts 333°
2026-05-07 20:17 61.37386 13.09104 38169 ft 441 kts 333°
2026-05-07 20:18 61.43070 13.04279 38157 ft 441 kts 333°
2026-05-07 20:18 61.48743 12.99444 38165 ft 440 kts 333°
2026-05-07 20:19 61.54409 12.94595 38166 ft 440 kts 333°
2026-05-07 20:19 61.59117 12.90552 38169 ft 440 kts 333°
2026-05-07 20:20 61.65700 12.84873 38179 ft 441 kts 332°
2026-05-07 20:20 61.71374 12.79961 38174 ft 441 kts 332°
2026-05-07 20:21 61.77040 12.75035 38166 ft 440 kts 332°
2026-05-07 20:21 61.81739 12.70935 38170 ft 439 kts 332°
2026-05-07 20:22 61.88298 12.65189 38170 ft 439 kts 332°
2026-05-07 20:22 61.93933 12.60230 38166 ft 438 kts 332°
2026-05-07 20:23 61.98612 12.56098 38184 ft 438 kts 332°
2026-05-07 20:23 62.04243 12.51105 38106 ft 440 kts 332°
2026-05-07 20:23 62.07075 12.48584 37801 ft 441 kts 332°
2026-05-07 20:24 62.10798 12.45271 37453 ft 435 kts 332°
2026-05-07 20:24 62.12680 12.43593 37279 ft 433 kts 331°
2026-05-07 20:24 62.15456 12.41111 37023 ft 432 kts 331°
2026-05-07 20:24 62.18184 12.38665 36774 ft 431 kts 331°
2026-05-07 20:25 62.20948 12.36180 36524 ft 431 kts 331°
2026-05-07 20:25 62.23707 12.33696 36257 ft 429 kts 331°
2026-05-07 20:25 62.26455 12.31221 35545 ft 428 kts 330°
2026-05-07 20:25 62.29191 12.28749 34901 ft 426 kts 330°
2026-05-07 20:26 62.32627 12.24817 33916 ft 417 kts 320°
2026-05-07 20:26 62.34175 12.22352 33779 ft 402 kts 315°
2026-05-07 20:26 62.36299 12.18437 32946 ft 401 kts 313°
2026-05-07 20:26 62.38362 12.14523 32142 ft 400 kts 313°
2026-05-07 20:27 62.40441 12.10555 31339 ft 399 kts 313°
2026-05-07 20:27 62.42524 12.06586 30500 ft 399 kts 314°
2026-05-07 20:27 62.44605 12.02635 29773 ft 395 kts 314°
2026-05-07 20:27 62.46654 11.98759 29089 ft 388 kts 314°
2026-05-07 20:28 62.48666 11.94958 28466 ft 381 kts 314°
2026-05-07 20:28 62.50645 11.91214 27881 ft 374 kts 314°
2026-05-07 20:28 62.52588 11.87532 27272 ft 369 kts 314°
2026-05-07 20:28 62.54501 11.83900 26689 ft 363 kts 314°
2026-05-07 20:29 62.56365 11.80356 26107 ft 360 kts 314°
2026-05-07 20:29 62.58234 11.76791 25486 ft 356 kts 314°
2026-05-07 20:29 62.60085 11.73256 24903 ft 355 kts 314°
2026-05-07 20:29 62.61966 11.69650 24334 ft 367 kts 314°
2026-05-07 20:30 62.63895 11.65944 23707 ft 371 kts 314°
2026-05-07 20:30 62.65820 11.62253 23037 ft 367 kts 314°
2026-05-07 20:30 62.67717 11.58615 22417 ft 360 kts 314°
2026-05-07 20:30 62.69579 11.55035 21818 ft 354 kts 314°
2026-05-07 20:31 62.71408 11.51510 21260 ft 349 kts 314°
2026-05-07 20:31 62.73188 11.48067 20705 ft 345 kts 314°
2026-05-07 20:31 62.74975 11.44609 20146 ft 342 kts 314°
2026-05-07 20:31 62.76753 11.41161 19572 ft 342 kts 314°
2026-05-07 20:32 62.78529 11.37710 19008 ft 342 kts 314°
2026-05-07 20:32 62.80384 11.34382 18437 ft 354 kts 324°
2026-05-07 20:32 62.82725 11.32378 17770 ft 371 kts 345°
2026-05-07 20:32 62.85305 11.32281 17383 ft 373 kts
2026-05-07 20:33 62.87794 11.33982 16955 ft 379 kts 21°
2026-05-07 20:33 62.90124 11.36623 16404 ft 376 kts 24°
2026-05-07 20:33 62.92373 11.39331 15836 ft 373 kts 25°
2026-05-07 20:33 62.94630 11.42080 15266 ft 369 kts 25°
2026-05-07 20:34 62.96869 11.44793 14707 ft 366 kts 25°
2026-05-07 20:34 62.99095 11.47470 14120 ft 364 kts 25°
2026-05-07 20:34 63.01328 11.50133 13389 ft 364 kts 25°
2026-05-07 20:34 63.03548 11.52771 12780 ft 361 kts 25°
2026-05-07 20:35 63.05747 11.55382 12202 ft 358 kts 25°
2026-05-07 20:35 63.07897 11.57935 11663 ft 354 kts 26°
2026-05-07 20:35 63.10058 11.60502 11099 ft 351 kts 26°
2026-05-07 20:35 63.12199 11.63051 10693 ft 344 kts 26°
2026-05-07 20:36 63.14258 11.65509 10551 ft 331 kts 26°
2026-05-07 20:36 63.16254 11.67896 10347 ft 321 kts 26°
2026-05-07 20:36 63.18182 11.70202 10199 ft 309 kts 26°
2026-05-07 20:36 63.20043 11.72432 10063 ft 299 kts 26°
2026-05-07 20:37 63.21837 11.74583 9987 ft 287 kts 26°
2026-05-07 20:37 63.23595 11.76692 9631 ft 287 kts 26°
2026-05-07 20:37 63.25314 11.78757 9349 ft 283 kts 26°
2026-05-07 20:37 63.27038 11.80833 9057 ft 281 kts 26°
2026-05-07 20:38 63.28749 11.82897 8761 ft 279 kts 26°
2026-05-07 20:38 63.30447 11.84927 8466 ft 276 kts 23°
2026-05-07 20:38 63.32273 11.85863 8164 ft 267 kts 354°
2026-05-07 20:38 63.34013 11.84764 7888 ft 258 kts 327°
2026-05-07 20:39 63.35334 11.82164 7595 ft 252 kts 304°
2026-05-07 20:39 63.36118 11.78736 7284 ft 247 kts 284°
2026-05-07 20:39 63.36502 11.75026 7009 ft 245 kts 279°
2026-05-07 20:39 63.36817 11.71353 6713 ft 244 kts 279°
2026-05-07 20:40 63.37136 11.67637 6412 ft 244 kts 279°
2026-05-07 20:40 63.37458 11.63986 6269 ft 235 kts 280°
2026-05-07 20:40 63.37771 11.60471 6156 ft 227 kts 280°
2026-05-07 20:40 63.38087 11.57083 6039 ft 220 kts 285°
2026-05-07 20:41 63.38888 11.54297 5948 ft 215 kts 319°
2026-05-07 20:41 63.40193 11.52645 5686 ft 218 kts 337°
2026-05-07 20:41 63.41620 11.51553 5494 ft 216 kts 339°
2026-05-07 20:41 63.43016 11.50496 5274 ft 214 kts 339°
2026-05-07 20:42 63.44397 11.49369 5085 ft 207 kts 330°
2026-05-07 20:42 63.45325 11.47138 4835 ft 193 kts 288°
2026-05-07 20:42 63.45513 11.44321 4670 ft 176 kts 277°
2026-05-07 20:42 63.45655 11.41708 4473 ft 162 kts 275°
2026-05-07 20:43 63.45722 11.39243 4299 ft 156 kts 272°
2026-05-07 20:43 63.45746 11.36813 4151 ft 157 kts 271°
2026-05-07 20:43 63.45753 11.34370 4047 ft 158 kts 271°
2026-05-07 20:43 63.45754 11.31913 3946 ft 161 kts 270°
2026-05-07 20:44 63.45752 11.29447 3723 ft 161 kts 270°
2026-05-07 20:44 63.45749 11.26949 3471 ft 160 kts 270°
2026-05-07 20:44 63.45747 11.24486 3213 ft 158 kts 270°
2026-05-07 20:44 63.45745 11.21913 2966 ft 171 kts 270°
2026-05-07 20:45 63.45744 11.19250 2692 ft 170 kts 270°
2026-05-07 20:45 63.45743 11.16623 2421 ft 169 kts 269°
2026-05-07 20:45 63.45742 11.13987 2139 ft 170 kts 269°
2026-05-07 20:45 63.45742 11.11397 1869 ft 162 kts 269°
2026-05-07 20:46 63.45725 11.08919 1573 ft 157 kts 267°
2026-05-07 20:46 63.45700 11.06550 1290 ft 153 kts 268°
2026-05-07 20:46 63.45688 11.04184 993 ft 152 kts 270°
2026-05-07 20:46 63.45710 11.01846 740 ft 149 kts 271°
2026-05-07 20:47 63.45730 10.99539 584 ft 149 kts 270°
2026-05-07 20:47 63.45740 10.97214 391 ft 149 kts 270°
2026-05-07 20:47 63.45757 10.94893 160 ft 149 kts 270°
2026-05-07 20:47 63.45754 10.92630 43 ft 133 kts 270°
2026-05-07 20:48 63.45755 10.91606 36 ft 20 kts 255°
2026-05-07 20:48 63.45660 10.91522 37 ft 0 kts 181°
2026-05-07 20:49 63.45606 10.91490 38 ft 18 kts 194°
2026-05-07 20:49 63.45507 10.91484 38 ft 0 kts 180°
2026-05-07 20:49 63.45499 10.91484 38 ft 0 kts 180°